Waarnemingen

Advertentie
Mijn weer
Moron de la Frontera, Spanje (8397): temperatuur & dauwpunt: 12.02.2019 19:00:00 - 18.02.2019 19:00:00 (CET)Moron de la Frontera, Spanje (8397): windsnelheid: 12.02.2019 19:00:00 - 18.02.2019 19:00:00 (CET)Moron de la Frontera, Spanje (8397): windrichting: 12.02.2019 19:00:00 - 18.02.2019 19:00:00 (CET)Moron de la Frontera, Spanje (8397): luchtdruk: 12.02.2019 19:00:00 - 18.02.2019 19:00:00 (CET)Moron de la Frontera, Spanje (8397): zicht: 12.02.2019 19:00:00 - 18.02.2019 19:00:00 (CET)
Datum & Tijd tt [°C] td [°C] ff [km/u] ff [kn] dd ppp [hPa] vv [km]
18.02.2019 19:00:00 16,0 7,5 4 2 NNW 1015,7 15
18.02.2019 18:00:00 - - - - - - -
18.02.2019 17:00:00 - - - - - - -
18.02.2019 16:00:00 19,0 5,8 4 2 N 1014,7 15
18.02.2019 15:00:00 - - - - - - -
18.02.2019 14:00:00 - - - - - - -
18.02.2019 13:00:00 18,1 6,3 13 7 Z 1016,1 15
18.02.2019 12:00:00 - - - - - - -
18.02.2019 11:00:00 - - - - - - -
18.02.2019 10:00:00 12,4 8,3 4 2 Z 1017,0 15
18.02.2019 09:00:00 - - - - - - -
18.02.2019 08:00:00 - - - - - - -
18.02.2019 07:00:00 6,8 4,8 2 1 O 1016,6 10
18.02.2019 06:00:00 - - - - - - -
18.02.2019 05:00:00 - - - - - - -
18.02.2019 04:00:00 5,9 4,4 4 2 ZZW 1018,3 10
18.02.2019 03:00:00 - - - - - - -
18.02.2019 02:00:00 - - - - - - -
18.02.2019 01:00:00 8,8 6,6 4 2 N 1019,5 10
18.02.2019 00:00:00 - - - - - - -
17.02.2019 23:00:00 - - - - - - -
17.02.2019 22:00:00 11,1 6,8 0 0 N 1019,9 15
17.02.2019 21:00:00 - - - - - - -
17.02.2019 20:00:00 - - - - - - -
17.02.2019 19:00:00 16,5 6,9 9 5 ZW 1018,8 20
17.02.2019 18:00:00 - - - - - - -
17.02.2019 17:00:00 - - - - - - -
17.02.2019 16:00:00 20,8 4,8 4 2 ZZW 1018,9 20
17.02.2019 15:00:00 - - - - - - -
17.02.2019 14:00:00 - - - - - - -
17.02.2019 13:00:00 17,9 5,2 4 2 WNW 1022,2 20
17.02.2019 12:00:00 - - - - - - -
17.02.2019 11:00:00 - - - - - - -
17.02.2019 10:00:00 10,1 6,3 0 0 N 1023,2 20
17.02.2019 09:00:00 - - - - - - -
17.02.2019 08:00:00 - - - - - - -
17.02.2019 07:00:00 3,1 1,2 4 2 ZZW 1022,4 20
17.02.2019 06:00:00 - - - - - - -
17.02.2019 05:00:00 - - - - - - -
17.02.2019 04:00:00 5,3 2,3 0 0 N 1022,1 20
17.02.2019 03:00:00 - - - - - - -
17.02.2019 02:00:00 - - - - - - -
17.02.2019 01:00:00 9,5 2,1 4 2 WNW 1022,6 20
17.02.2019 00:00:00 - - - - - - -
16.02.2019 23:00:00 - - - - - - -
16.02.2019 22:00:00 11,8 2,0 4 2 ZZO 1022,9 30
16.02.2019 21:00:00 - - - - - - -
16.02.2019 20:00:00 - - - - - - -
16.02.2019 19:00:00 15,9 2,7 13 7 ZZO 1021,2 30
16.02.2019 18:00:00 - - - - - - -
16.02.2019 17:00:00 - - - - - - -
16.02.2019 16:00:00 19,2 3,0 22 12 ZO 1020,4 25
16.02.2019 15:00:00 - - - - - - -
16.02.2019 14:00:00 - - - - - - -
16.02.2019 13:00:00 18,7 6,5 11 6 O 1022,5 20
16.02.2019 12:00:00 - - - - - - -
16.02.2019 11:00:00 - - - - - - -
16.02.2019 10:00:00 12,6 6,6 5 3 OZO 1022,7 20
16.02.2019 09:00:00 - - - - - - -
16.02.2019 08:00:00 - - - - - - -
16.02.2019 07:00:00 11,7 6,2 11 6 O 1021,2 15
16.02.2019 06:00:00 - - - - - - -
16.02.2019 05:00:00 - - - - - - -
16.02.2019 04:00:00 12,2 6,0 9 5 O 1021,3 15
16.02.2019 03:00:00 - - - - - - -
16.02.2019 02:00:00 - - - - - - -
16.02.2019 01:00:00 9,0 4,8 2 1 WZW 1022,4 15
16.02.2019 00:00:00 - - - - - - -
15.02.2019 23:00:00 - - - - - - -
15.02.2019 22:00:00 12,2 5,4 9 5 ZZO 1022,2 15
15.02.2019 21:00:00 - - - - - - -
15.02.2019 20:00:00 - - - - - - -
15.02.2019 19:00:00 16,5 5,8 9 5 ONO 1021,2 20
15.02.2019 18:00:00 - - - - - - -
15.02.2019 17:00:00 - - - - - - -
15.02.2019 16:00:00 20,6 6,2 4 2 N 1021,6 25
15.02.2019 15:00:00 - - - - - - -
15.02.2019 14:00:00 - - - - - - -
15.02.2019 13:00:00 17,3 5,6 4 2 ZO 1025,1 20
15.02.2019 12:00:00 - - - - - - -
15.02.2019 11:00:00 - - - - - - -
15.02.2019 10:00:00 9,0 6,1 4 2 NO 1026,3 9
15.02.2019 09:00:00 - - - - - - -
15.02.2019 08:00:00 - - - - - - -
15.02.2019 07:00:00 3,1 1,5 0 0 N 1026,2 15
15.02.2019 06:00:00 - - - - - - -
15.02.2019 05:00:00 - - - - - - -
15.02.2019 04:00:00 3,8 2,0 0 0 N 1026,2 30
15.02.2019 03:00:00 - - - - - - -
15.02.2019 02:00:00 - - - - - - -
15.02.2019 01:00:00 6,4 3,2 0 0 N 1027,2 20
15.02.2019 00:00:00 - - - - - - -
14.02.2019 23:00:00 - - - - - - -
14.02.2019 22:00:00 11,0 4,5 5 3 WNW 1027,3 30
14.02.2019 21:00:00 - - - - - - -
14.02.2019 20:00:00 - - - - - - -
14.02.2019 19:00:00 16,4 5,4 8 4 WZW 1025,7 20
14.02.2019 18:00:00 - - - - - - -
14.02.2019 17:00:00 - - - - - - -
14.02.2019 16:00:00 20,6 5,4 0 0 N 1026,1 25
14.02.2019 15:00:00 - - - - - - -
14.02.2019 14:00:00 - - - - - - -
14.02.2019 13:00:00 17,4 5,4 5 3 N 1028,2 20
14.02.2019 12:00:00 - - - - - - -
14.02.2019 11:00:00 - - - - - - -
14.02.2019 10:00:00 8,6 5,2 0 0 N 1028,9 10
14.02.2019 09:00:00 - - - - - - -
14.02.2019 08:00:00 - - - - - - -
14.02.2019 07:00:00 4,4 2,6 2 1 O 1027,8 15
14.02.2019 06:00:00 - - - - - - -
14.02.2019 05:00:00 - - - - - - -
14.02.2019 04:00:00 5,1 3,1 4 2 ZZO 1027,7 15
14.02.2019 03:00:00 - - - - - - -
14.02.2019 02:00:00 - - - - - - -
14.02.2019 01:00:00 7,4 4,9 0 0 N 1027,9 15
14.02.2019 00:00:00 - - - - - - -
13.02.2019 23:00:00 - - - - - - -
13.02.2019 22:00:00 10,0 6,0 4 2 ZO 1027,5 20
13.02.2019 21:00:00 - - - - - - -
13.02.2019 20:00:00 - - - - - - -
13.02.2019 19:00:00 17,2 4,9 2 1 WZW 1026,5 25
13.02.2019 18:00:00 - - - - - - -
13.02.2019 17:00:00 - - - - - - -
13.02.2019 16:00:00 19,5 5,6 4 2 WNW 1026,6 30
13.02.2019 15:00:00 - - - - - - -
13.02.2019 14:00:00 - - - - - - -
13.02.2019 13:00:00 16,8 4,5 5 3 ZW 1028,7 30
13.02.2019 12:00:00 - - - - - - -
13.02.2019 11:00:00 - - - - - - -
13.02.2019 10:00:00 10,1 7,0 0 0 N 1029,0 30
13.02.2019 09:00:00 - - - - - - -
13.02.2019 08:00:00 - - - - - - -
13.02.2019 07:00:00 6,2 3,9 4 2 N 1028,2 20
13.02.2019 06:00:00 - - - - - - -
13.02.2019 05:00:00 - - - - - - -
13.02.2019 04:00:00 7,7 3,2 0 0 N 1028,3 20
13.02.2019 03:00:00 - - - - - - -
13.02.2019 02:00:00 - - - - - - -
13.02.2019 01:00:00 12,5 3,5 16 9 ZZO 1028,6 20
13.02.2019 00:00:00 - - - - - - -
12.02.2019 23:00:00 - - - - - - -
12.02.2019 22:00:00 12,5 3,5 8 4 Z 1029,2 20
12.02.2019 21:00:00 - - - - - - -
12.02.2019 20:00:00 - - - - - - -
12.02.2019 19:00:00 15,7 5,9 9 5 ZO 1028,1 30

tt = temperatuur
td = dauwpunt
ff = windsnelheid
dd = windrichting
ppp = luchtdruk
vv = zicht

Weerstations in de omgeving